Location: Bremen
(53.0793°N, 8.8017°E)
Time: 17:33:07
(UTC+02:00)

Tiros 1 - Pass Details

Date: 22 April 2024
Orbit: 624 x 657 km, 48.4° (Epoch: 17 May)

Event Time Altitude Azimuth Distance (km) Brightness Sun altitude
Rises 02:54:25 0° 250° (WSW) 2,925 - -21.8°
Reaches altitude 10° 02:56:48 10° 244° (WSW) 2,013 - -21.6°
Maximum altitude 03:01:13 45° 172° (S) 857 - -21.3°
Exits shadow 03:01:48 43° 149° (SSE) 890 7.6 -21.3°
Drops below altitude 10° 03:05:36 10° 100° (E) 2,000 9.9 -21.0°
Sets 03:07:58 0° 94° (E) 2,905 10.8 -20.9°
